This demonstration page uses our WeatherBlox Daily Observations layout. Learn more.

Hourly Observations for May 8, 2016

Temp ( °F °C ) Dew Point ( °F °C ) Humidity (%) Winds ( mph kmh ) Pressure ( in mb ) Visibility ( mi km ) Precip ( " mm )
12:15 am 00:15 Cloudy 59 15 55 13 88 88 S 6 9 29.74 1007 10 16.0934 0 0
12:35 am 00:35 Cloudy 59 15 54 12 82 82 S 7 11 29.74 1007 10 16.0934 0 0
12:50 am 00:50 Cloudy 59 15 54 12 82 82 S 8 13 29.74 1007 10 16.0934 0 0
1:15 am 01:15 Cloudy 57 14 54 12 88 88 S 7 11 29.74 1007 10 16.0934 0 0
1:35 am 01:35 Mostly Cloudy 57 14 54 12 88 88 SSW 6 9 29.71 1006 10 16.0934 0 0
1:55 am 01:55 Cloudy 57 14 54 12 88 88 WSW 5 7 29.74 1007 10 16.0934 0 0
2:15 am 02:15 Cloudy with Light Rain 57 14 55 13 94 94 S 13 20 29.71 1006 10 16.0934 0 0
2:35 am 02:35 Cloudy with Light Rain 57 14 55 13 94 94 SSW 10 17 29.71 1006 10 16.0934 0 0
2:55 am 02:55 Cloudy with Light Rain 57 14 55 13 94 94 SSW 8 13 29.71 1006 10 16.0934 0 0
3:15 am 03:15 Cloudy with Rain 55 13 55 13 100 100 S 10 17 29.68 1005 5 8.0467 0 0
3:35 am 03:35 Mostly Cloudy 55 13 55 13 100 100 S 8 13 29.68 1005 10 16.0934 0 0
3:55 am 03:55 Mostly Cloudy 55 13 55 13 100 100 S 5 7 29.65 1004 10 16.0934 0 0
4:15 am 04:15 Partly Cloudy 55 13 55 13 100 100 Calm 29.68 1005 10 16.0934 0 0
4:35 am 04:35 Mostly Cloudy 55 13 55 13 100 100 SW 3 6 29.68 1005 10 16.0934 0 0
4:55 am 04:55 Cloudy 55 13 55 13 100 100 SSW 5 7 29.68 1005 10 16.0934 0 0
5:15 am 05:15 Cloudy with Light Rain 55 13 55 13 100 100 S 5 7 29.68 1005 7 11.26538 0 0
5:35 am 05:35 Cloudy 55 13 55 13 100 100 SSW 3 6 29.68 1005 10 16.0934 0 0
5:55 am 05:55 Mostly Cloudy 55 13 55 13 100 100 S 3 6 29.68 1005 10 16.0934 0 0
6:15 am 06:15 Partly Cloudy 54 12 54 12 100 100 SSW 3 6 29.68 1005 10 16.0934 0 0
6:35 am 06:35 Mostly Cloudy 55 13 55 13 100 100 SW 5 7 29.68 1005 10 16.0934 0 0
6:55 am 06:55 Partly Cloudy 55 13 55 13 100 100 WSW 3 6 29.71 1006 10 16.0934 0 0
7:15 am 07:15 Partly Cloudy 55 13 55 13 100 100 S 3 6 29.71 1006 10 16.0934 0 0
7:35 am 07:35 Sunny 55 13 55 13 100 100 S 6 9 29.71 1006 10 16.0934 0 0
7:55 am 07:55 Sunny 57 14 57 14 100 100 SSW 5 7 29.74 1007 10 16.0934 0 0
8:15 am 08:15 Sunny 63 17 61 16 94 94 WNW 13 20 29.74 1007 10 16.0934 0 0
8:35 am 08:35 Sunny 63 17 59 15 88 88 NW 16 26 29.74 1007 10 16.0934 0 0
8:55 am 08:55 Sunny 64 18 55 13 73 73 NW 18 30 29.77 1008 10 16.0934 0 0
9:15 am 09:15 Sunny 64 18 52 11 64 64 WNW 20 31 29.77 1008 10 16.0934 0 0
9:35 am 09:35 Sunny 64 18 48 9 56 56 WNW 18 30 29.77 1008 10 16.0934 0 0
9:55 am 09:55 Sunny 64 18 46 8 52 52 WNW 20 31 29.77 1008 10 16.0934 0 0
10:15 am 10:15 Sunny 64 18 43 6 46 46 NNW 13 20 29.8 1009 10 16.0934 0 0
10:35 am 10:35 Sunny 66 19 43 6 43 43 NW 18 30 29.8 1009 10 16.0934 0 0
10:55 am 10:55 Sunny 66 19 43 6 43 43 WNW 17 28 29.83 1010 10 16.0934 0 0
11:15 am 11:15 Sunny 68 20 43 6 40 40 NW 17 28 29.83 1010 10 16.0934 0 0
11:35 am 11:35 Sunny 68 20 43 6 40 40 NNW 14 22 29.83 1010 10 16.0934 0 0
11:55 am 11:55 Sunny 68 20 43 6 40 40 NW 14 22 29.83 1010 10 16.0934 0 0
12:15 pm 12:15 Sunny 68 20 43 6 40 40 NW 13 20 29.83 1010 10 16.0934 0 0
12:35 pm 12:35 Sunny 68 20 41 5 38 38 NNW 17 28 29.85 1011 10 16.0934 0 0
12:55 pm 12:55 Sunny 70 21 39 4 33 33 WNW 24 39 29.83 1010 10 16.0934 0 0
1:15 pm 13:15 Sunny 70 21 37 3 31 31 NNW 22 35 29.85 1011 10 16.0934 0 0
1:35 pm 13:35 Sunny 70 21 39 4 33 33 NW 18 30 29.85 1011 10 16.0934 0 0
1:55 pm 13:55 Sunny 70 21 37 3 31 31 NW 21 33 29.85 1011 10 16.0934 0 0
2:15 pm 14:15 Sunny 70 21 39 4 33 33 WNW 14 22 29.85 1011 10 16.0934 0 0
2:35 pm 14:35 Sunny 70 21 39 4 33 33 NW 21 33 29.85 1011 10 16.0934 0 0
3:00 pm 15:00 Sunny 72 22 37 3 29 29 NW 18 30 29.85 1011 10 16.0934 0 0
3:15 pm 15:15 Sunny 72 22 39 4 31 31 NW 21 33 29.85 1011 10 16.0934 0 0
3:35 pm 15:35 Sunny 70 21 36 2 29 29 NNW 23 37 29.85 1011 10 16.0934 0 0
3:55 pm 15:55 Sunny 70 21 37 3 31 31 NW 16 26 29.85 1011 10 16.0934 0 0
4:15 pm 16:15 Sunny 70 21 37 3 31 31 NNW 18 30 29.85 1011 10 16.0934 0 0
4:35 pm 16:35 Sunny 70 21 36 2 29 29 NNW 15 24 29.85 1011 10 16.0934 0 0
4:55 pm 16:55 Sunny 70 21 37 3 31 31 NNW 17 28 29.88 1012 10 16.0934 0 0
5:10 pm 17:10 Sunny 68 20 37 3 33 33 NNW 14 22 29.88 1012 10 16.0934 0 0
5:35 pm 17:35 Sunny 70 21 37 3 31 31 NW 15 24 29.88 1012 10 16.0934 0 0
5:55 pm 17:55 Sunny 68 20 37 3 33 33 NW 13 20 29.88 1012 10 16.0934 0 0
6:15 pm 18:15 Sunny 68 20 36 2 30 30 NNW 14 22 29.88 1012 10 16.0934 0 0
6:35 pm 18:35 Sunny 68 20 37 3 33 33 NW 14 22 29.88 1012 10 16.0934 0 0
6:55 pm 18:55 Sunny 66 19 37 3 35 35 NW 8 13 29.88 1012 10 16.0934 0 0
7:15 pm 19:15 Sunny 66 19 37 3 35 35 NW 13 20 29.91 1013 10 16.0934 0 0
7:35 pm 19:35 Sunny 66 19 36 2 32 32 NW 9 15 29.91 1013 10 16.0934 0 0
7:55 pm 19:55 Sunny 64 18 37 3 37 37 NW 9 15 29.94 1014 10 16.0934 0 0
8:10 pm 20:10 Sunny 63 17 36 2 37 37 NW 10 17 29.94 1014 10 16.0934 0 0
8:35 pm 20:35 Clear 61 16 36 2 39 39 NNW 8 13 29.94 1014 10 16.0934 0 0
8:55 pm 20:55 Clear 61 16 36 2 39 39 NW 9 15 29.94 1014 10 16.0934 0 0
9:15 pm 21:15 Clear 59 15 36 2 42 42 NW 8 13 29.97 1015 10 16.0934 0 0
9:35 pm 21:35 Clear 59 15 36 2 42 42 NW 6 9 29.97 1015 10 16.0934 0 0
9:55 pm 21:55 Clear 59 15 37 3 45 45 Calm 29.97 1015 10 16.0934 0 0
10:15 pm 22:15 Clear 57 14 37 3 48 48 Calm 30 1016 10 16.0934 0 0
10:35 pm 22:35 Clear 55 13 37 3 51 51 SSW 6 9 30 1016 10 16.0934 0 0
10:55 pm 22:55 Clear 55 13 37 3 51 51 SSW 6 9 30 1016 10 16.0934 0 0
11:15 pm 23:15 Clear 50 10 43 6 76 76 W 7 11 30 1016 10 16.0934 0 0
11:35 pm 23:35 Clear 50 10 43 6 76 76 W 6 9 30 1016 10 16.0934 0 0
11:55 pm 23:55 Clear 52 11 41 5 67 67 Calm 30.03 1017 10 16.0934 0 0

Powered by AerisWeather